Theta_e
349 349 345 342 340 338 335 335 335 329 330 338 336 340 341 343 346 347 348 343 341 339 335 335 337 339 341 343 343 343 342 342 340 339 339 339 338 334
348 347 348 348 344 340 340 335 332 332 328 333 337 339 340 340 342 345 344 342 339 338 335 333 334 336 337 339 339 339 339 338 337 337 337 338 338 333
351 350 348 347 346 345 340 338 334 331 330 335 332 338 341 341 342 344 341 341 341 335 335 333 332 333 335 335 335 336 336 336 335 335 336 337 337 332
352 352 351 350 348 348 343 342 338 335 333 332 335 335 339 342 341 341 340 338 338 334 332 332 331 330 330 330 330 331 330 331 332 332 334 335 335 330
353 352 352 352 351 350 347 345 341 340 336 332 334 334 337 338 338 338 338 340 340 336 329 329 330 329 328 327 326 325 324 325 325 326 328 329 330 327
353 353 353 353 352 353 350 350 347 342 338 335 336 335 335 339 337 336 336 336 336 337 335 332 331 331 329 327 325 324 324 322 319 321 322 323 324 324
353 353 354 353 347 348 352 352 350 346 345 340 339 340 337 337 336 340 335 338 339 339 337 337 336 333 331 329 331 329 324 322 319 319 318 317 317 319
352 353 354 349 347 340 339 341 348 348 346 344 343 341 343 343 342 338 336 334 331 339 336 336 337 335 337 335 331 328 324 323 322 321 319 316 315 315
354 354 353 354 348 354 342 336 337 335 340 351 347 345 344 347 346 341 337 337 335 338 337 332 338 334 337 335 328 326 325 324 323 322 320 317 314 313
354 354 354 354 354 353 353 353 351 350 347 346 349 351 353 355 351 347 345 341 337 338 338 330 337 333 334 335 328 327 325 324 322 320 318 315 312 310
354 355 354 354 342 333 352 351 352 353 343 333 334 334 333 332 337 344 338 333 332 335 341 334 335 334 334 333 331 328 325 322 321 320 318 315 310 308
353 354 336 348 333 327 347 352 350 352 355 355 354 343 334 339 331 339 343 337 336 333 340 333 334 334 327 334 333 332 330 321 317 317 316 314 308 317
351 353 355 329 324 322 325 353 350 353 352 353 354 354 352 352 353 347 341 339 337 336 342 337 333 333 331 324 331 332 333 328 326 317 309 308 306 312
353 355 355 326 320 319 324 329 326 329 350 349 351 351 352 351 352 349 346 341 341 345 346 340 335 334 331 320 320 326 328 325 322 318 316 308 305 305
357 348 333 320 317 320 318 321 320 337 342 344 345 348 352 353 349 347 348 347 344 338 338 340 339 338 334 316 316 322 319 316 317 315 315 313 311 312
333 344 337 332 328 334 333 327 330 338 342 343 346 347 344 343 342 344 342 341 329 330 331 329 333 329 323 320 319 320 318 315 314 316 314 311 313 314
340 348 345 345 347 343 344 346 341 340 338 341 340 337 338 340 340 341 337 333 330 328 324 323 323 321 317 318 317 316 312 313 315 311 313 310 311 312
336 346 345 345 345 347 346 344 342 337 340 338 337 338 337 332 333 333 332 333 329 325 321 320 321 319 318 317 316 311 309 309 309 311 313 310 308 309
346 346 346 348 346 347 346 343 339 340 340 339 337 331 333 332 331 329 330 332 326 324 322 321 320 319 315 312 310 310 310 309 307 308 310 311 310 309
343 346 345 342 343 343 342 339 336 336 335 332 331 335 332 330 327 328 329 327 324 322 318 318 319 322 318 316 311 309 306 310 310 308 307 307 307 306
340 338 338 336 335 338 336 334 334 332 332 331 331 333 333 330 329 328 326 316 317 320 318 316 317 313 314 315 312 310 312 305 312 313 308 308 306 306
334 334 332 330 329 331 330 330 330 325 327 329 330 333 329 329 326 326 323 322 321 320 319 314 316 314 314 313 310 311 311 311 308 307 307 308 307 304
329 329 326 327 327 329 329 328 328 327 327 328 331 330 329 328 327 327 325 325 323 320 320 317 314 314 313 314 310 310 312 311 310 310 309 306 306 305
Wind_Speed
6 4 4 3 3 3 3 2 3 2 3 2 3 4 5 6 8 9 9 10 13 13 13 12 13 12 12 11 11 9 9 8 7 8 6 7 5 2
5 5 5 3 4 3 3 2 2 2 3 3 3 2 3 5 8 9 10 11 14 15 15 15 15 14 13 12 12 11 10 9 9 9 8 6 6 5
6 7 8 5 4 4 4 3 3 3 4 3 2 1 3 5 6 8 9 9 8 15 17 17 17 16 15 14 13 13 12 11 10 10 9 8 7 6
10 8 9 5 7 6 5 7 6 5 4 7 3 3 6 4 5 6 8 9 9 13 17 18 17 17 16 15 14 14 13 11 11 9 8 7 7 6
11 11 12 9 9 7 7 7 6 5 6 6 8 3 5 3 5 6 6 8 8 12 13 17 19 18 18 16 17 16 11 10 9 8 7 8 8 9
12 12 12 11 12 10 9 9 8 7 6 7 8 7 6 3 4 7 7 7 8 9 15 14 15 22 22 23 18 14 13 13 10 8 8 9 8 7
12 13 13 14 16 14 8 9 9 8 7 8 9 8 8 6 8 5 8 9 8 9 9 10 9 10 11 16 12 18 17 14 14 12 9 10 9 9
12 12 13 13 15 16 17 18 13 11 11 10 11 12 13 9 8 8 10 8 9 7 8 12 9 10 10 9 19 22 18 18 15 13 11 10 11 11
14 12 11 10 13 13 16 19 18 17 19 15 15 14 14 11 10 10 12 11 13 7 4 10 4 10 7 6 22 24 22 17 14 14 13 13 12 12
15 15 15 14 12 14 14 14 14 14 16 14 18 18 17 14 13 13 14 8 8 6 5 10 5 8 5 7 24 22 20 21 19 16 14 13 13 12
14 14 15 15 13 16 14 14 15 14 11 18 20 20 17 16 12 5 9 7 11 11 6 8 10 8 7 8 14 28 25 23 20 16 14 14 14 12
13 15 17 17 14 16 14 14 16 13 13 14 12 12 16 14 17 14 12 11 10 7 7 8 10 7 4 7 13 14 13 21 19 15 14 13 14 8
11 11 11 17 19 18 19 16 16 14 13 10 10 8 9 9 9 7 10 10 8 11 7 5 4 7 9 3 6 12 13 10 8 6 8 15 17 10
12 10 10 15 18 19 16 17 18 14 8 9 9 8 8 7 5 5 8 8 10 14 11 5 5 8 9 3 4 3 8 7 8 5 7 9 9 8
11 11 12 14 17 13 14 14 11 7 9 9 10 9 5 3 2 4 5 8 9 3 4 9 9 10 8 4 2 6 7 3 4 7 6 8 7 7
11 10 6 5 9 9 6 7 7 8 9 8 6 3 1 2 4 3 3 2 2 1 6 9 8 3 4 4 5 6 5 5 5 4 6 5 5 6
9 6 5 6 7 6 6 7 5 5 6 5 4 3 2 3 4 3 1 1 2 2 1 4 9 11 9 4 4 4 5 5 5 7 7 6 4 5
3 5 7 7 8 7 6 5 4 5 5 4 3 3 3 4 3 0 1 2 3 3 2 1 3 5 4 7 8 7 3 4 5 6 8 7 5 4
6 7 8 7 7 6 5 4 4 5 5 4 3 4 4 2 2 1 3 3 3 2 2 3 2 4 6 5 1 8 6 4 7 5 5 5 6 7
5 6 5 4 4 5 4 4 4 4 4 4 4 4 3 3 3 3 3 3 3 3 2 3 3 6 7 5 5 2 4 9 6 8 6 4 6 9
6 3 3 3 3 4 4 4 5 5 5 5 4 4 5 4 3 3 3 5 6 3 4 4 3 4 6 5 5 3 3 9 3 10 7 6 5 5
2 3 2 3 3 4 4 4 4 4 4 4 4 4 4 4 4 5 5 6 5 5 4 4 5 5 2 2 6 8 5 3 5 8 9 5 8 8
3 3 3 2 3 3 3 3 3 3 4 4 4 4 4 4 4 5 5 6 6 6 7 5 4 1 1 1 5 6 8 7 6 7 7 8 1 4
Wind_Direction
227 221 219 224 225 208 199 184 171 274 272 264 256 235 229 213 221 216 223 219 221 217 218 220 225 228 227 227 234 242 248 256 269 278 282 288 276 296
225 219 233 226 214 222 221 208 203 188 268 215 238 262 229 231 227 218 224 221 221 219 217 219 222 227 230 224 226 229 233 238 249 254 267 250 250 238
224 226 237 224 235 215 220 223 221 184 246 285 258 267 258 238 230 219 228 227 230 221 222 220 220 223 223 224 223 226 230 225 229 236 241 235 219 228
228 228 241 227 240 233 211 217 218 198 216 261 249 259 238 241 247 238 232 235 229 226 220 224 223 222 225 224 224 223 226 220 228 224 225 225 214 217
227 223 233 222 235 234 228 234 231 222 213 236 268 233 254 235 257 253 243 246 241 238 224 220 217 218 224 222 216 217 217 214 226 214 202 198 209 211
227 227 229 224 231 230 229 235 230 227 220 233 255 262 250 239 233 257 259 231 244 235 235 230 218 221 215 217 212 182 187 225 193 211 200 191 197 199
226 231 232 228 225 226 227 239 230 238 240 244 253 260 260 254 248 250 249 263 239 224 235 235 227 219 223 219 196 184 179 184 187 175 196 196 185 193
227 231 233 228 231 228 225 233 227 231 243 247 256 257 258 252 252 243 249 257 272 187 222 256 221 225 216 188 179 174 176 176 186 178 194 201 186 198
226 229 231 230 223 233 234 237 241 233 236 248 252 248 262 252 255 252 249 249 254 267 233 261 235 234 211 184 177 172 172 178 195 191 190 197 192 198
231 230 232 235 223 220 234 242 240 238 235 241 247 257 258 259 242 247 263 267 262 256 200 251 218 234 186 194 185 173 176 182 182 194 193 194 197 199
234 230 231 236 227 208 229 242 250 251 237 237 243 250 251 247 262 289 260 258 267 263 215 250 250 239 206 199 187 187 181 182 183 185 181 199 195 180
235 235 223 230 218 210 221 235 251 253 250 248 250 251 252 260 237 239 262 258 258 281 226 222 243 229 247 211 197 195 185 179 173 179 187 187 176 167
233 234 232 215 222 218 217 233 242 252 257 258 256 249 252 254 251 225 223 237 253 252 249 221 233 228 228 214 201 186 162 163 152 156 168 167 172 165
230 229 230 210 217 222 225 232 242 247 259 265 266 263 258 251 251 234 236 232 242 253 286 248 263 233 230 175 153 117 119 131 125 143 155 145 115 92
235 233 222 210 216 229 233 236 237 245 245 250 253 259 272 285 303 285 245 247 268 347 304 275 273 270 240 105 43 110 126 125 131 136 150 148 151 171
253 258 239 216 207 215 219 217 215 224 230 240 253 242 225 254 263 250 272 275 102 357 14 5 17 62 69 74 111 147 119 137 143 141 130 116 162 175
220 230 225 230 237 219 220 224 209 201 211 216 225 242 244 253 286 313 268 150 202 165 44 2 47 64 73 105 88 106 102 75 122 132 127 135 161 163
169 216 225 220 226 228 220 208 192 199 208 201 199 213 256 274 282 143 202 217 207 165 154 107 133 93 59 55 55 121 80 107 118 133 124 145 153 169
216 215 221 215 216 214 204 187 192 196 180 190 192 217 225 182 170 198 233 213 177 156 129 146 177 141 128 114 353 25 128 117 133 131 144 146 166 172
224 220 219 197 195 202 183 176 168 170 184 186 192 200 179 179 180 218 212 184 156 106 108 127 162 151 152 157 140 138 10 144 154 151 141 98 75 89
208 196 191 190 176 194 183 177 181 183 181 174 198 178 181 176 178 187 161 164 141 125 170 166 155 102 111 121 102 124 136 29 58 157 149 147 154 160
176 181 178 152 153 171 165 162 165 171 184 192 204 185 165 178 179 172 165 172 168 144 138 121 151 158 146 139 145 149 157 137 73 80 29 65 167 185
152 134 125 122 136 157 161 173 194 202 209 215 204 175 175 178 178 180 174 184 157 150 148 156 167 137 55 138 140 153 162 173 173 181 196 10 346 2